Miscellaneous Local Product
Issued by NWS Hastings, NE

Home | Current Version | Previous Version | Text Only | Print | Product List | Glossary Off
Versions: 1 2 3 4 5 6 7 8 9 10 11 12 13 14 15 16 17 18 19 20 21 22 23 24 25 26 27 28 29 30 31 32 33 34 35 36 37 38 39 40 41 42 43 44 45 46 47 48 49 50

000
AXUS43 KGID 310702
MISGRI

GID CWA HOURLY WEATHER ROUNDUP
NATIONAL WEATHER SERVICE HASTINGS NE
200 AM CDT FRI JUL 31 2015

NOTE: "FAIR" INDICATES FEW OR NO CLOUDS BELOW 12,000 FEET WITH NO
SIGNIFICANT WEATHER AND/OR OBSTRUCTIONS TO VISIBILITY.

...SOUTH CENTRAL NEBRASKA...

CITY           SKY/WX    TMP DP  RH WIND       PRES   REMARKS
GRAND ISLAND   CLEAR     69  67  93 S7        30.18S
HASTINGS       CLEAR     71  67  87 S5        30.19R
KEARNEY        CLEAR     70  64  83 SW7       30.19S
ORD            CLEAR     65  63  93 CALM      30.17R
YORK           CLEAR     66  66 100 SW6       30.17S
AURORA         CLEAR     71  68  92 S8        30.18R
LEXINGTON      CLEAR     66  63  91 CALM      30.20S
HOLDREGE       CLEAR     68  64  85 S5        30.20S
HEBRON         PTCLDY    72  66  83 S6        30.17S

...NEBRASKA PANHANDLE...

CITY           SKY/WX    TMP DP  RH WIND       PRES   REMARKS
CHADRON        CLEAR     56  49  77 NW3       30.22S
ALLIANCE       CLEAR     61  57  87 S3        30.27S
SCOTTSBLUFF    CLEAR     65  59  81 E6        30.27S
SIDNEY         CLEAR     56  54  93 SW3       30.30F

...WESTERN AND NORTH CENTRAL NEBRASKA...

CITY           SKY/WX    TMP DP  RH WIND       PRES   REMARKS
VALENTINE      CLEAR     60  51  72 W5        30.20S
AINSWORTH      CLEAR     66  56  71 SW3       30.20F
ONEILL         CLEAR     68  65  90 CALM      30.17S
BROKEN BOW     CLEAR     66  62  87 CALM      30.20S
IMPERIAL       CLEAR     62  58  86 NE7       30.23S
NORTH PLATTE   CLEAR     65  60  84 CALM      30.22S
MCCOOK         CLEAR     70  63  78 S5        30.20S

...EASTERN NEBRASKA...

CITY           SKY/WX    TMP DP  RH WIND       PRES   REMARKS
NORFOLK        CLEAR     71  66  84 SE9       30.15S
SO SIOUX CITY  PTCLDY    70  65  84 S3        30.13R
TEKAMAH        CLOUDY    72  66  81 NW6       30.13F
COLUMBUS       CLEAR     68  59  73 E5        30.16R
ALBION         CLEAR     71  64  79 CALM      30.16S
OMAHA EPPLEY   PTCLDY    71  66  84 CALM      30.14S
OFFUTT AFB     PTCLDY    68  65  88 CALM      30.14R
MILLARD        PTCLDY    72  63  72 CALM      30.15R
LINCOLN        CLEAR     70  62  76 S3        30.16R
NEBRASKA CITY  CLEAR     69  60  74 SW3       30.16S
BEATRICE       PTCLDY    70  63  77 CALM      30.16S
FALLS CITY     PTCLDY    69  64  84 S6        30.15S

...NORTHERN KANSAS...

CITY           SKY/WX    TMP DP  RH WIND       PRES   REMARKS
GOODLAND       PTCLDY    63  62  97 CALM      30.26R
HILL CITY      PTCLDY    72  68  87 S6        30.20S
NORTON         SUNNY     70  63  78 S6        30.20S
PHILLIPSBURG   CLEAR     75  68  78 CALM      30.19S
SMITH CENTER   CLEAR     70  64  83 S5        30.20R
HAYS           PTCLDY    70  61  73 S7        30.21R
RUSSELL        PTCLDY    69  67  93 S7        30.19R
CONCORDIA      MOCLDY    72  66  81 S9        30.17S
SALINA         PTCLDY    73  67  81 SW7       30.17S
TOPEKA         CLEAR     67  66  97 CALM      30.17S



USA.gov is the U.S. government's official web portal to all federal, state and local government web resources and services.